TimeCST,TemperatureF,Dew PointF,Humidity,Sea Level PressureIn,VisibilityMPH,Wind Direction,Wind SpeedMPH,Gust SpeedMPH,PrecipitationIn,Events,Conditions,WindDirDegrees,DateUTC
12:56 AM,37.0,30.9,79,30.33,10.0,Calm,Calm,-,N/A,,Clear,0,2013-01-23 06:56:00
1:56 AM,36.0,30.9,82,30.32,10.0,Calm,Calm,-,N/A,,Clear,0,2013-01-23 07:56:00
2:56 AM,35.1,28.9,78,30.34,10.0,Calm,Calm,-,N/A,,Clear,0,2013-01-23 08:56:00
3:56 AM,35.1,30.0,82,30.34,10.0,Calm,Calm,-,N/A,,Clear,0,2013-01-23 09:56:00
4:56 AM,35.1,28.9,78,30.36,10.0,Calm,Calm,-,N/A,,Scattered Clouds,0,2013-01-23 10:56:00
5:56 AM,39.0,30.9,73,30.38,10.0,Calm,Calm,-,N/A,,Overcast,0,2013-01-23 11:56:00
6:56 AM,39.0,30.9,73,30.38,10.0,SE,3.5,-,N/A,,Overcast,140,2013-01-23 12:56:00
7:56 AM,42.1,32.0,67,30.40,10.0,ESE,3.5,-,N/A,,Overcast,120,2013-01-23 13:56:00
8:56 AM,48.0,30.9,52,30.43,10.0,ESE,5.8,-,N/A,,Scattered Clouds,110,2013-01-23 14:56:00
9:56 AM,53.1,28.9,40,30.42,10.0,Variable,3.5,-,N/A,,Overcast,0,2013-01-23 15:56:00
10:56 AM,57.0,28.9,34,30.40,10.0,SSE,3.5,-,N/A,,Mostly Cloudy,150,2013-01-23 16:56:00
11:56 AM,62.1,34.0,35,30.37,10.0,NNW,5.8,-,N/A,,Mostly Cloudy,340,2013-01-23 17:56:00
12:56 PM,63.0,35.1,35,30.33,10.0,Calm,Calm,-,N/A,,Overcast,0,2013-01-23 18:56:00
1:56 PM,64.9,37.9,37,30.31,10.0,WNW,6.9,-,N/A,,Mostly Cloudy,300,2013-01-23 19:56:00
2:56 PM,66.0,39.9,38,30.30,10.0,West,5.8,-,N/A,,Mostly Cloudy,280,2013-01-23 20:56:00
3:56 PM,66.0,41.0,40,30.30,10.0,NW,5.8,-,N/A,,Partly Cloudy,310,2013-01-23 21:56:00
4:56 PM,62.1,43.0,50,30.29,10.0,Calm,Calm,-,N/A,,Scattered Clouds,0,2013-01-23 22:56:00
5:56 PM,55.0,43.0,64,30.28,10.0,Calm,Calm,-,N/A,,Scattered Clouds,0,2013-01-23 23:56:00
6:56 PM,57.0,44.1,62,30.29,5.0,SSW,3.5,-,N/A,,Haze,210,2013-01-24 00:56:00
7:56 PM,57.0,45.0,64,30.29,5.0,Calm,Calm,-,N/A,,Haze,0,2013-01-24 01:56:00
8:56 PM,55.0,45.0,69,30.30,7.0,SW,4.6,-,N/A,,Clear,230,2013-01-24 02:56:00
9:56 PM,54.0,45.0,72,30.30,6.0,West,3.5,-,N/A,,Haze,260,2013-01-24 03:56:00
10:56 PM,53.1,45.0,74,30.29,6.0,West,3.5,-,N/A,,Haze,260,2013-01-24 04:56:00
11:56 PM,53.1,46.0,77,30.29,6.0,West,3.5,-,N/A,,Haze,270,2013-01-24 05:56:00